Regional Weather Roundup
Issued by NWS

Home | Current Version | Previous Version | Graphics & Text | Print | Product List | Glossary On
Versions: 1 2 3 4 5 6 7 8 9 10 11 12 13 14 15 16 17 18 19 20 21 22 23 24 25 26 27 28 29 30 31 32 33 34 35 36 37 38 39 40 41 42 43 44 45 46 47 48 49 50
000
ASUS43 KDMX 282003
RWRIA

WEATHER ROUNDUP FOR IOWA
NATIONAL WEATHER SERVICE DES MOINES IA
300 PM CDT THU APR 28 2016

NOTE: "FAIR" INDICATES FEW OR NO CLOUDS BELOW 12,000 FEET WITH NO
SIGNIFICANT WEATHER AND/OR OBSTRUCTIONS TO VISIBILITY.

* - THESE STATIONS ARE NOT NWS STATIONS...THUS NOT UNDER NWS
QUALITY CONTROL.  THEY ALSO DO NOT REPORT WEATHER SUCH
AS PRECIPITATION OR FOG.

IAZ001>003-012>014-020>022-031>034-043>046-282100-
   NORTHWEST IOWA

CITY           SKY/WX    TMP DP  RH WIND       PRES   REMARKS
CARROLL *      CLOUDY    48  45  87 NW15      29.94R
CHEROKEE *     CLOUDY    44  42  91 N7        29.97R
DENISON *      CLOUDY    46  43  87 NW13      29.95R
LE MARS *      CLOUDY    43  39  87 N10       30.00R
ORANGE CITY *  CLOUDY    41  37  87 N10       29.97R
SHELDON *      CLOUDY    41  39  93 N13       29.97R
SIOUX CITY     CLOUDY    46  39  76 N9        29.99R
SPENCER        CLOUDY    43  38  82 N13       29.97R
STORM LAKE *   PTSUNNY   43  41  93 N12       29.95R
$$

IAZ055>058-069>071-079>083-090>094-282100-
   SOUTHWEST IOWA

CITY           SKY/WX    TMP DP  RH WIND       PRES   REMARKS
ATLANTIC *     CLOUDY    50  45  81 NW14      29.95R
AUDUBON *      CLOUDY    48  45  87 NW8       29.95R
CLARINDA *       N/A    N/A N/A N/A MISG        N/A
COUNCIL BLFS *   N/A     48  43  81 NW14      29.97R
CRESTON *      CLOUDY    52  46  82 W17       29.94S
HARLAN  *      CLOUDY    48  43  81 NW15G21   29.99R
LAMONI         CLOUDY    52  46  80 W14       29.94R
RED OAK *      CLOUDY    52  45  76 NW14      29.96R
SHENANDOAH *   CLOUDY    52  46  82 NW8       29.98R
$$

IAZ047>049-059>061-072>074-084-282100-
   CENTRAL IOWA

CITY           SKY/WX    TMP DP  RH WIND       PRES   REMARKS
AMES           CLOUDY    57  48  72 N6        29.89R
ANKENY *       CLOUDY    54  50  87 CALM      29.89R
BOONE *        CLOUDY    55  46  71 N8        29.88R
CHARITON *     CLOUDY    54  46  76 W15       29.91R
DES MOINES     CLOUDY    56  46  69 W8        29.89R
GRINNELL*      CLOUDY    55  46  71 W13       29.89R
KNOXVILLE *    CLOUDY    55  48  76 SW8G14    29.89R
MARSHALLTOWN   CLOUDY    54  47  77 CALM      29.88R
NEWTON *       CLOUDY    57  48  72 W10       29.88R
PELLA *        CLOUDY    55  47  72 W8        29.91R
$$

IAZ004>006-015-016-023>025-035-036-282100-
   NORTH CENTRAL IOWA

CITY           SKY/WX    TMP DP  RH WIND       PRES   REMARKS
ALGONA *       CLOUDY    45  43  93 NE13      29.95R
CLARION *      CLOUDY    46  45  93 NE10      29.93R
ESTHERVILLE    CLOUDY    41  39  93 NE14      29.96R
FORT DODGE *   CLOUDY    46  41  81 N9        29.93R
MASON CITY     CLOUDY    44  42  93 NE14      29.95R FOG
FOREST CITY *  RAIN      43  41  93 N9        29.94R
WEBSTER CITY * CLOUDY    50  48  93 N10       29.90R
IOWA FALLS *   CLOUDY    50  46  87 N6        29.91R
$$

IAZ007>011-017>019-026>030-037>042-050>054-066-282100-
   NORTHEAST IOWA

CITY           SKY/WX    TMP DP  RH WIND       PRES   REMARKS
CEDAR RAPIDS   CLOUDY    54  50  86 W7        29.87R
CHARLES CITY * CLOUDY    45  45 100 NE9       29.93R FOG
CLINTON *      LGT RAIN  50  49  96 E7        29.90R FOG
DECORAH *      CLOUDY    45  41  87 NE8G15    29.93R
DUBUQUE        CLOUDY    46  43  89 E9        29.90R
MONTICELLO *   FOG       48  48 100 E6G12     29.89R VSB 1
OELWEIN *      CLOUDY    46  46 100 NE9       29.91R FOG
WATERLOO       LGT RAIN  50  47  89 NE7       29.90R FOG
$$

IAZ064-065-067-068-078-282100-
   EAST CENTRAL IOWA

CITY           SKY/WX    TMP DP  RH WIND       PRES   REMARKS
DAVENPORT      LGT RAIN  51  48  89 SE3       29.91R FOG
IOWA CITY      CLOUDY    55  48  77 W6        29.89R
MT. PLEASANT * CLOUDY    59  50  72 W14       29.90R
MUSCATINE *    CLOUDY    57  46  67 W9        29.90R
QUAD CITIES    CLOUDY    54  49  83 CALM      29.89R HAZE
$$

IAZ062-063-075>077-085>089-095>099-282100-
   SOUTHEAST IOWA

CITY           SKY/WX    TMP DP  RH WIND       PRES   REMARKS
BURLINGTON     CLOUDY    56  48  74 SW14      29.89S
FAIRFIELD *    CLOUDY    57  48  72 SW13      29.89R
FORT MADISON * PTSUNNY   57  48  72 W8G17     29.90S
KEOKUK *       CLOUDY    57  48  72 W12       29.90R
OSKALOOSA *    CLOUDY    57  46  67 W14       29.90R
OTTUMWA        CLOUDY    55  46  71 W12       29.90R
WASHINGTON *   PTSUNNY   55  50  82 W7        29.90R
$$

ABBREVIATIONS USED IN REMARKS
   TC - TEMPERATURES IN CELSIUS
  WCI - WIND CHILL INDEX
   HX - HEAT INDEX
  VSB - VISIBILITY
$$





USA.gov is the U.S. government's official web portal to all federal, state and local government web resources and services.